Погода в Мелиоративном

Россия / Республика Карелия     61°51′55″N   34°14′28″E
темп.,
°C
ветер,
м/с
пор.,
м/с
влажн.,
%
обл.,
%
осадки,
мм/ч
давл.,
гПа
погр.,
м
1 июля, пт
пт100:00+18с11785 0.0 102013
03:00+15всв11910 0.0 102111
06:00+18юв13695 0.0 1021124
09:00+22вюв2243100 0.0 1022439
12:00+25в223712 0.0 1022746
15:00+26в32355 0.0 1022731
18:00+24вюв22385 0.0 1021349
21:00+20ю11565 0.0 102113
2 июля, сб
сб200:00+18юз23592 0.0 102145
03:00+17зюз25825 0.0 102181
06:00+20з39695 0.0 1021256
09:00+25зсз354877 0.0 1021603
12:00+29с2438100 0.0 10201454
15:00+29св2341100 0.0 10191621
18:00+26вюв1255100 0.0 1019205
21:00+21с2480100 0.8 1019147
3 июля, вс
вс300:00+19ююв1183100 0.1 101914
03:00+16с119358 0.8 101919
06:00+19ю118887 0.3 101843
09:00+25юв115979 0.3 1018539
12:00+29в124284 0.0 10171978
15:00+23вюв2467100 0.3 1017211
18:00+22юв247297 0.1 1016136
21:00+22юз2374100 0.1 101673
4 июля, пн
пн400:00+19зюз228010 0.0 101629
03:00+18зюз118478 0.0 101612
06:00+20зюз127595 0.0 101679
09:00+25з235374 0.0 1016710
12:00+23юз136465 0.0 1016352
15:00+26ююв2457100 0.1 1014444
18:00+26зсз245029 0.8 10131276
21:00+21ю11765 0.9 101322
5 июля, вт
вт500:00+18зюз248789 0.0 101369
03:00+16юз2281100 0.0 101246
06:00+18зюз2672100 0.0 1012176
09:00+24зюз245782 0.1 1011754
12:00+26зюз4634100 0.9 10101837
15:00+27зюз563029 0.9 10092437
18:00+26зюз46370 0.0 10091997
21:00+20зюз4106013 0.0 1009528